AEE272 LGAV-LGHI

Flight info

Callsign AEE272
Flight time 0h 26m
Altitude 13000
Route KRO N604 SOSIR Y134 PANOX
Aircraft A20N/M-SDE2E3FGHIRWXY/LB1

Departure

Time 2026-04-26 15:36
Airport Athens Eleftherios Venizelos International Airport (LGAV)

Arrival

Time 2026-04-26 16:02
Airport Chios Island National Airport (LGHI)
Time Latitude Longitude Altitude Speed Heading
2026-04-26 15:19 37.93605 23.94839 277 ft 0 kts 307°
2026-04-26 15:25 37.93601 23.94846 300 ft 1 kts 307°
2026-04-26 15:25 37.93596 23.94854 302 ft 1 kts 307°
2026-04-26 15:26 37.93591 23.94862 301 ft 1 kts 307°
2026-04-26 15:26 37.93586 23.94870 301 ft 1 kts 307°
2026-04-26 15:26 37.93579 23.94882 303 ft 2 kts 299°
2026-04-26 15:26 37.93572 23.94907 300 ft 3 kts 266°
2026-04-26 15:27 37.93579 23.94933 300 ft 3 kts 226°
2026-04-26 15:27 37.93587 23.94941 302 ft 0 kts 208°
2026-04-26 15:30 37.93589 23.94943 302 ft 3 kts 203°
2026-04-26 15:30 37.93592 23.94945 302 ft 0 kts 198°
2026-04-26 15:31 37.93533 23.94896 300 ft 10 kts 218°
2026-04-26 15:31 37.93461 23.94857 300 ft 13 kts 167°
2026-04-26 15:32 37.93340 23.94981 298 ft 16 kts 195°
2026-04-26 15:32 37.93214 23.94867 301 ft 18 kts 218°
2026-04-26 15:32 37.93109 23.94762 300 ft 20 kts 216°
2026-04-26 15:33 37.92986 23.94652 302 ft 23 kts 217°
2026-04-26 15:33 37.92855 23.94527 302 ft 25 kts 217°
2026-04-26 15:33 37.92728 23.94408 302 ft 15 kts 217°
2026-04-26 15:33 37.92635 23.94320 303 ft 18 kts 216°
2026-04-26 15:34 37.92538 23.94325 306 ft 10 kts 131°
2026-04-26 15:34 37.92530 23.94337 305 ft 0 kts 128°
2026-04-26 15:34 37.92529 23.94340 305 ft 1 kts 128°
2026-04-26 15:35 37.92515 23.94362 306 ft 5 kts 128°
2026-04-26 15:35 37.92491 23.94420 308 ft 10 kts 98°
2026-04-26 15:35 37.92566 23.94527 306 ft 39 kts 37°
2026-04-26 15:35 37.92977 23.94913 296 ft 104 kts 36°
2026-04-26 15:36 37.93691 23.95591 279 ft 149 kts 37°
2026-04-26 15:36 37.94594 23.96462 508 ft 167 kts 37°
2026-04-26 15:36 37.95518 23.97350 1093 ft 167 kts 38°
2026-04-26 15:36 37.96457 23.98249 1720 ft 170 kts 37°
2026-04-26 15:37 37.97395 23.99156 2366 ft 169 kts 38°
2026-04-26 15:37 37.98301 24.00130 3024 ft 170 kts 39°
2026-04-26 15:37 37.99181 24.01180 3665 ft 178 kts 44°
2026-04-26 15:37 38.00024 24.02387 4337 ft 188 kts 47°
2026-04-26 15:38 38.01034 24.03528 4873 ft 204 kts 30°
2026-04-26 15:38 38.02343 24.04486 5357 ft 229 kts 26°
2026-04-26 15:38 38.03782 24.05548 5957 ft 251 kts 29°
2026-04-26 15:38 38.05256 24.06780 6810 ft 258 kts 32°
2026-04-26 15:39 38.06723 24.08116 7803 ft 262 kts 33°
2026-04-26 15:39 38.08165 24.09574 8742 ft 269 kts 45°
2026-04-26 15:39 38.09116 24.11636 9708 ft 278 kts 72°
2026-04-26 15:39 38.09305 24.13250 10297 ft 282 kts 90°
2026-04-26 15:40 38.08697 24.16544 11298 ft 299 kts 109°
2026-04-26 15:40 38.07923 24.19104 11687 ft 322 kts 111°
2026-04-26 15:40 38.07072 24.21854 12015 ft 346 kts 110°
2026-04-26 15:40 38.06206 24.24782 12552 ft 360 kts 109°
2026-04-26 15:41 38.05352 24.27790 13446 ft 363 kts 108°
2026-04-26 15:41 38.04523 24.30781 14247 ft 367 kts 107°
2026-04-26 15:41 38.03681 24.33857 15040 ft 370 kts 107°
2026-04-26 15:41 38.02836 24.36950 15839 ft 373 kts 107°
2026-04-26 15:42 38.01982 24.40073 16586 ft 377 kts 107°
2026-04-26 15:42 38.01118 24.43229 17356 ft 380 kts 107°
2026-04-26 15:42 38.00512 24.46484 18100 ft 380 kts 92°
2026-04-26 15:42 38.00698 24.49818 18764 ft 380 kts 74°
2026-04-26 15:43 38.01676 24.52921 19377 ft 379 kts 57°
2026-04-26 15:43 38.03270 24.55589 19989 ft 381 kts 48°
2026-04-26 15:43 38.06753 24.60724 20936 ft 387 kts 47°
2026-04-26 15:44 38.08502 24.63323 21006 ft 387 kts 47°
2026-04-26 15:44 38.11967 24.68558 21015 ft 387 kts 48°
2026-04-26 15:44 38.13673 24.71157 21028 ft 387 kts 48°
2026-04-26 15:45 38.17123 24.76424 21021 ft 387 kts 48°
2026-04-26 15:45 38.18844 24.79055 21029 ft 387 kts 48°
2026-04-26 15:46 38.22293 24.84332 21016 ft 387 kts 48°
2026-04-26 15:46 38.24011 24.86962 21023 ft 387 kts 48°
2026-04-26 15:46 38.25734 24.89604 21015 ft 387 kts 48°
2026-04-26 15:46 38.26872 24.91350 21022 ft 387 kts 48°
2026-04-26 15:47 38.29149 24.94845 21022 ft 387 kts 48°
2026-04-26 15:47 38.32584 25.00125 21010 ft 387 kts 48°
2026-04-26 15:47 38.34303 25.02772 21026 ft 387 kts 48°
2026-04-26 15:48 38.36020 25.05417 21017 ft 387 kts 48°
2026-04-26 15:48 38.37731 25.08055 20852 ft 385 kts 48°
2026-04-26 15:48 38.39318 25.10786 20425 ft 385 kts 59°
2026-04-26 15:48 38.40286 25.13957 19885 ft 386 kts 75°
2026-04-26 15:49 38.40490 25.17382 19322 ft 387 kts 91°
2026-04-26 15:49 38.40314 25.20796 18771 ft 384 kts 91°
2026-04-26 15:49 38.40136 25.24180 18234 ft 381 kts 91°
2026-04-26 15:49 38.39962 25.27534 17623 ft 378 kts 91°
2026-04-26 15:50 38.39792 25.30860 17024 ft 375 kts 91°
2026-04-26 15:50 38.39627 25.34123 16444 ft 372 kts 91°
2026-04-26 15:50 38.39460 25.37402 15872 ft 370 kts 91°
2026-04-26 15:50 38.39294 25.40660 15318 ft 367 kts 91°
2026-04-26 15:51 38.39128 25.43908 14591 ft 369 kts 91°
2026-04-26 15:51 38.38960 25.47210 13606 ft 379 kts 92°
2026-04-26 15:51 38.38787 25.50586 12799 ft 381 kts 92°
2026-04-26 15:51 38.38613 25.53938 12149 ft 378 kts 92°
2026-04-26 15:52 38.38438 25.57280 11501 ft 376 kts 92°
2026-04-26 15:52 38.38264 25.60590 10835 ft 374 kts 93°
2026-04-26 15:52 38.38090 25.63907 10087 ft 376 kts 93°
2026-04-26 15:52 38.37975 25.66091 9910 ft 367 kts 93°
2026-04-26 15:53 38.37637 25.70294 9658 ft 345 kts 104°
2026-04-26 15:53 38.36750 25.72980 9442 ft 324 kts 123°
2026-04-26 15:53 38.35401 25.75160 9190 ft 307 kts 131°
2026-04-26 15:53 38.34031 25.77217 8841 ft 303 kts 131°
2026-04-26 15:54 38.32673 25.79264 8421 ft 301 kts 131°
2026-04-26 15:54 38.31325 25.81299 8004 ft 300 kts 131°
2026-04-26 15:54 38.29984 25.83325 7618 ft 298 kts 131°
2026-04-26 15:54 38.28648 25.85341 7202 ft 297 kts 131°
2026-04-26 15:55 38.27321 25.87340 6803 ft 296 kts 131°
2026-04-26 15:55 38.25995 25.89335 6459 ft 293 kts 131°
2026-04-26 15:55 38.24686 25.91314 6132 ft 290 kts 129°
2026-04-26 15:55 38.23528 25.93392 5829 ft 286 kts 123°
2026-04-26 15:56 38.22478 25.95529 5523 ft 282 kts 122°
2026-04-26 15:56 38.21460 25.97636 5228 ft 278 kts 122°
2026-04-26 15:56 38.20452 25.99683 4932 ft 274 kts 122°
2026-04-26 15:56 38.19438 26.01706 4694 ft 268 kts 123°
2026-04-26 15:57 38.18776 26.03013 4536 ft 260 kts 123°
2026-04-26 15:57 38.17495 26.05521 4228 ft 247 kts 123°
2026-04-26 15:57 38.16883 26.06719 4132 ft 241 kts 122°
2026-04-26 15:57 38.16314 26.07941 3991 ft 235 kts 111°
2026-04-26 15:58 38.16224 26.10514 3746 ft 214 kts 66°
2026-04-26 15:58 38.17079 26.11960 3470 ft 203 kts 30°
2026-04-26 15:58 38.18387 26.12455 3180 ft 196 kts 356°
2026-04-26 15:58 38.19690 26.12222 2970 ft 185 kts 348°
2026-04-26 15:59 38.20950 26.11972 2670 ft 181 kts 353°
2026-04-26 15:59 38.22193 26.11901 2366 ft 177 kts 359°
2026-04-26 15:59 38.23412 26.11958 2066 ft 173 kts
2026-04-26 15:59 38.24580 26.12102 1773 ft 163 kts
2026-04-26 16:00 38.25672 26.12289 1447 ft 153 kts
2026-04-26 16:00 38.26699 26.12489 1189 ft 146 kts
2026-04-26 16:00 38.27643 26.12679 1027 ft 129 kts
2026-04-26 16:00 38.28466 26.12849 919 ft 119 kts
2026-04-26 16:01 38.29330 26.13027 834 ft 130 kts
2026-04-26 16:01 38.30220 26.13209 731 ft 129 kts
2026-04-26 16:01 38.31091 26.13385 565 ft 127 kts 10°
2026-04-26 16:01 38.31966 26.13554 419 ft 123 kts 11°
2026-04-26 16:02 38.32787 26.13731 248 ft 120 kts
2026-04-26 16:02 38.33644 26.13912 68 ft 129 kts 10°
2026-04-26 16:02 38.34453 26.14080 29 ft 87 kts
2026-04-26 16:02 38.34675 26.14126 29 ft 10 kts
2026-04-26 16:03 38.34829 26.14160 29 ft 24 kts 10°
2026-04-26 16:03 38.34980 26.14214 29 ft 15 kts 15°
2026-04-26 16:03 38.35008 26.14191 29 ft 2 kts 248°
2026-04-26 16:03 38.34952 26.14180 29 ft 17 kts 188°
2026-04-26 16:04 38.34813 26.14155 29 ft 23 kts 188°
2026-04-26 16:04 38.34662 26.14125 29 ft 21 kts 190°
2026-04-26 16:04 38.34540 26.14147 29 ft 19 kts 147°
2026-04-26 16:04 38.34453 26.14219 29 ft 6 kts 156°
2026-04-26 16:05 38.34429 26.14216 29 ft 1 kts 146°
2026-04-26 16:05 38.34429 26.14218 29 ft 0 kts 126°